BEACONC [HTS] 1 01328C 65032A 22219.98750000 .00000065 00000+0 10032-3 0 2199 2 01328 41.1841 286.1708 0256997 176.8537 179.4550 13.38684444 19 BEACONC [SGF] 1 01328C 65032A 22219.00000000 .00000035 00000+0 53923-4 0 2194 2 01328 41.1843 290.3952 0256951 171.7141 100.4327 13.38684342 17 STARLETTE [DGF] 1 07646C 75010A 22220.00000000 .00000044 00000+0 34583-4 0 2205 2 07646 49.8209 266.7618 0205765 87.8491 188.4641 13.82312940 11 STARLETTE [HTS] 1 07646C 75010A 22219.98750000 .00000075 00000+0 58765-4 0 2192 2 07646 49.8210 266.8101 0205764 87.8061 126.2627 13.82312801 13 STARLETTE [SGF] 1 07646C 75010A 22219.00000000 .00000072 00000+0 55925-4 0 2195 2 07646 49.8213 270.7085 0205766 84.5443 252.1410 13.82312679 13 LAGEOS1 [DGF] 1 08820C 76039A 22220.00000000 .00000000 00000+0 00000+0 0 2206 2 08820 109.8526 56.6492 0045106 243.7711 321.5059 6.38664810 12 LAGEOS1 [HTS] 1 08820C 76039A 22219.97916667 .00000000 00000+0 00000+0 0 2193 2 08820 109.8527 56.6422 0045103 243.7738 273.6079 6.38664773 19 LAGEOS1 [SGF] 1 08820C 76039A 22219.00000000 .00000000 00000+0 00000+0 0 2192 2 08820 109.8528 56.3069 0045101 243.9817 182.3151 6.38664783 10 AJISAI [DGF] 1 16908C 86061A 22220.00000000 -.00000049 00000+0 -34509-3 0 2208 2 16908 50.0085 160.5415 0011216 193.4195 327.7602 12.44497276 13 AJISAI [HTS] 1 16908C 86061A 22219.98611111 -.00000069 00000+0 -48565-3 0 2191 2 16908 50.0082 160.5834 0011225 193.4144 265.5053 12.44497378 11 AJISAI [SGF] 1 16908C 86061A 22219.00000000 -.00000068 00000+0 -47619-3 0 2191 2 16908 50.0081 163.6159 0011225 190.8884 167.5560 12.44497482 16 ETALON1 [DGF] 1 19751C 89001C 22220.00000000 .00000000 00000+0 00000+0 0 2204 2 19751 64.3137 120.6136 0023866 213.3510 196.7838 2.13156037 19 ETALON1 [HTS] 1 19751C 89001C 22219.93750000 .00000000 00000+0 00000+0 0 2194 2 19751 64.3137 120.6164 0023870 213.3813 148.7935 2.13156030 19 ETALON1 [SGF] 1 19751C 89001C 22219.00000000 .00000000 00000+0 00000+0 0 2190 2 19751 64.3135 120.6480 0023864 213.3636 149.4094 2.13156076 18 ETALON2 [DGF] 1 20026C 89039C 22220.00000000 .00000000 00000+0 00000+0 0 2202 2 20026 65.5360 358.6379 0018454 218.4687 110.0785 2.13204036 10 ETALON2 [HTS] 1 20026C 89039C 22219.93750000 .00000000 00000+0 00000+0 0 2192 2 20026 65.5359 358.6401 0018456 218.4134 62.1639 2.13204080 17 ETALON2 [SGF] 1 20026C 89039C 22219.00000000 .00000000 00000+0 00000+0 0 2198 2 20026 65.5360 358.6722 0018459 218.3617 62.6569 2.13204072 11 LAGEOS2 [DGF] 1 22195C 92070B 22220.00000000 .00000000 00000+0 00000+0 0 2200 2 22195 52.6603 77.2163 0138310 291.3529 53.2452 6.47293693 17 LAGEOS2 [HTS] 1 22195C 92070B 22219.97916667 .00000000 00000+0 00000+0 0 2197 2 22195 52.6606 77.2305 0138303 291.3422 4.6999 6.47293599 13 LAGEOS2 [SGF] 1 22195C 92070B 22219.00000000 .00000000 00000+0 00000+0 0 2196 2 22195 52.6607 77.8490 0138300 290.9159 242.9889 6.47293580 19 STELLA [DGF] 1 22824C 93061B 22220.00000000 .00000030 00000+0 12146-4 0 2202 2 22824 98.9620 242.2188 0006422 16.2685 86.4681 14.27392042 11 STELLA [HTS] 1 22824C 93061B 22219.98750000 .00000063 00000+0 25746-4 0 2193 2 22824 98.9621 242.2053 0006484 16.2751 22.2655 14.27391872 14 STELLA [SGF] 1 22824C 93061B 22219.00000000 .00000022 00000+0 90687-5 0 2196 2 22824 98.9623 241.1931 0006505 19.0791 347.9390 14.27392070 12 LARETS [DGF] 1 27944C 03042F 22220.00000000 .00000059 00000+0 11467-4 0 2206 2 27944 98.2196 348.7404 0013668 119.5237 242.0708 14.63249089 15 LARETS [HTS] 1 27944C 03042F 22219.98750000 .00000021 00000+0 40209-5 0 2197 2 27944 98.2193 348.7280 0013638 119.2581 176.5291 14.63249152 19 LARETS [SGF] 1 27944C 03042F 22219.00000000 -.00000004 00000+0 -73793-6 0 2196 2 27944 98.2190 347.7443 0013634 122.2130 14.8165 14.63249161 10 TERRASARX [GFZ] 1 31698C 07026A 22220.54145833 .00001232 00000+0 58787-4 0 2206 2 31698 97.4463 227.4026 0001693 98.7079 308.3627 15.19146829 10 GLONASS106 [COD] 1 32275C 07052A 22219.99979167 .00000000 00000+0 00000+0 0 2199 2 32275 66.0818 2.9607 0002492 193.1565 12.2871 2.13103945 11 GLONASS106 [NER] 1 32275C 07052A 22219.00000000 .00000000 00000+0 00000+0 0 2192 2 32275 66.0818 2.9943 0002448 192.4944 325.9426 2.13103934 16 GLONASS105 [COD] 1 32276C 07052B 22219.99979167 .00000000 00000+0 00000+0 0 2190 2 32276 66.0955 3.0625 0007705 334.1805 179.4530 2.13103104 17 GLONASS105 [NER] 1 32276C 07052B 22219.00000000 .00000000 00000+0 00000+0 0 2193 2 32276 66.0955 3.0961 0007705 334.4290 132.2011 2.13103075 19 GLONASS107 [COD] 1 32393C 07065A 22219.99979167 .00000000 00000+0 00000+0 0 2194 2 32393 64.3779 239.6666 0000621 174.9820 280.2082 2.13103036 18 GLONASS107 [NER] 1 32393C 07065A 22219.00000000 .00000000 00000+0 00000+0 0 2197 2 32393 64.3782 239.7007 0000604 178.9122 229.2687 2.13102910 16 GLONASS116 [COD] 1 36111C 09070A 22219.99979167 .00000000 00000+0 00000+0 0 2194 2 36111 64.3635 119.2850 0003452 320.0990 299.9550 2.13099045 17 GLONASS116 [NER] 1 36111C 09070A 22219.00000000 .00000000 00000+0 00000+0 0 2197 2 36111 64.3631 119.3193 0003527 319.3011 253.7562 2.13099098 11 COMPASSG1 [SHA] 1 36287C 10001A 22216.00000000 -.00000157 00000+0 00000+0 0 2165 2 36287 0.9715 78.3342 0005840 108.8656 269.8717 1.00268780 11 CRYOSAT2 [ESA] 1 36508C 10013A 22220.00000000 .00000023 00000+0 56522-5 0 2201 2 36508 92.0362 296.6124 0006990 82.2655 214.3082 14.51895728 19 TANDEMX [GFZ] 1 36605C 10030A 22220.54145833 .00001237 00000+0 59006-4 0 2208 2 36605 97.4462 227.4053 0002054 97.4410 309.6298 15.19146786 19 COMPASSI3 [SHA] 1 37384C 11013A 22216.00000000 -.00000124 00000+0 00000+0 0 2162 2 37384 60.3623 53.7862 0023540 177.0541 187.8144 1.00293925 12 GALILEO101 [COD] 1 37846C 11060A 22219.99979167 .00000000 00000+0 00000+0 0 2192 2 37846 57.0161 19.9361 0002937 67.0864 11.8277 1.70474628 17 GALILEO101 [ESA] 1 37846C 11060A 22219.99979167 .00000000 00000+0 00000+0 0 2192 2 37846 57.0161 19.9361 0002937 67.0878 11.8263 1.70474628 17 GALILEO101 [GAL] 1 37846C 11060A 22220.01020833 .00000000 00000+0 00000+0 0 2206 2 37846 57.0161 19.9358 0002936 67.0926 18.2143 1.70474629 15 GALILEO102 [COD] 1 37847C 11060B 22219.99979167 .00000000 00000+0 00000+0 0 2193 2 37847 57.0168 19.9358 0001863 20.5386 105.0985 1.70475016 15 GALILEO102 [ESA] 1 37847C 11060B 22219.99979167 .00000000 00000+0 00000+0 0 2193 2 37847 57.0168 19.9358 0001863 20.5343 105.1028 1.70475017 18 GALILEO102 [GAL] 1 37847C 11060B 22220.01020833 .00000000 00000+0 00000+0 0 2207 2 37847 57.0168 19.9355 0001862 20.5277 111.5024 1.70475019 19 GLONASS128 [COD] 1 37867C 11064A 22219.99979167 .00000000 00000+0 00000+0 0 2199 2 37867 64.6514 120.6613 0021176 235.9364 290.0552 2.13101516 11 GLONASS128 [NER] 1 37867C 11064A 22219.00000000 .00000000 00000+0 00000+0 0 2192 2 37867 64.6511 120.6952 0021233 236.0390 242.9472 2.13101625 17 GLONASS129 [COD] 1 37868C 11064B 22219.99979167 .00000000 00000+0 00000+0 0 2190 2 37868 64.6591 120.7265 0018490 236.7912 107.2912 2.13101474 16 GLONASS129 [NER] 1 37868C 11064B 22219.00000000 .00000000 00000+0 00000+0 0 2193 2 37868 64.6587 120.7604 0018517 237.0711 60.0064 2.13101546 13 GLONASS127 [COD] 1 37869C 11064C 22219.99979167 .00000000 00000+0 00000+0 0 2191 2 37869 64.6663 120.7351 0022654 255.2290 46.9307 2.13101830 18 GLONASS127 [NER] 1 37869C 11064C 22219.00000000 .00000000 00000+0 00000+0 0 2194 2 37869 64.6660 120.7690 0022718 255.4006 359.7529 2.13101890 16 COMPASSI5 [SHA] 1 37948C 11073A 22216.00000000 -.00000112 00000+0 00000+0 0 2161 2 37948 50.2429 288.7234 0086138 219.1129 260.2711 1.00282990 11 LARES [DGF] 1 38077C 12006A 22220.00000000 -.00000061 00000+0 -37489-3 0 2201 2 38077 69.4909 179.2510 0011443 287.8440 90.7368 12.54931545 18 LARES [HTS] 1 38077C 12006A 22219.98611111 -.00000076 00000+0 -46618-3 0 2195 2 38077 69.4906 179.2751 0011426 287.6508 28.1962 12.54931601 14 LARES [IST] 1 38077C 12006A 22219.99998843 -.00000044 00000+0 -27103-3 0 2199 2 38077 69.4754 179.5936 0011446 287.7980 90.6484 12.54931067 19 LARES [SGF] 1 38077C 12006A 22219.00000000 -.00000059 00000+0 -36327-3 0 2194 2 38077 69.4904 180.9592 0011427 288.4867 253.2850 12.54931615 14 COMPASSM3 [SHA] 1 38250C 12018A 22216.00000000 .00000000 00000+0 00000+0 0 2163 2 38250 56.6816 351.9914 0021633 249.1594 159.3710 1.86233977 16 GALILEO103 [COD] 1 38857C 12055A 22219.99979167 .00000000 00000+0 00000+0 0 2190 2 38857 55.1509 140.2824 0003742 268.4853 146.1663 1.70473487 10 GALILEO103 [ESA] 1 38857C 12055A 22219.99979167 .00000000 00000+0 00000+0 0 2190 2 38857 55.1509 140.2824 0003742 268.4810 146.1706 1.70473489 13 GALILEO103 [GAL] 1 38857C 12055A 22220.01020833 .00000000 00000+0 00000+0 0 2204 2 38857 55.1509 140.2821 0003741 268.4768 152.5677 1.70473489 19 GALILEO104 [ESA] 1 38858C 12055B 22219.99979167 .00000000 00000+0 00000+0 0 2191 2 38858 55.1510 140.2839 0001264 268.2800 164.7889 1.70473782 10 GALILEO104 [GAL] 1 38858C 12055B 22220.01020833 .00000000 00000+0 00000+0 0 2205 2 38858 55.1511 140.2836 0001262 268.2893 171.1726 1.70473787 15 SARAL [CNE] 1 39086C 13009A 22220.00000000 .00000078 00000+0 29252-4 0 2202 2 39086 98.5479 44.8741 0002312 106.0618 131.4159 14.32055917 10 GLONASS131 [COD] 1 39155C 13019A 22219.99979167 .00000000 00000+0 00000+0 0 2193 2 39155 64.8149 121.1006 0021646 231.7784 338.6118 2.13101717 13 GLONASS131 [NER] 1 39155C 13019A 22219.00000000 .00000000 00000+0 00000+0 0 2196 2 39155 64.8145 121.1344 0021704 231.9168 291.4680 2.13101790 18 IRNSS1A [ISR] 1 39199C 13034A 22219.99979167 .00000151 00000+0 00000+0 0 2195 2 39199 32.5389 84.5935 0019122 178.8106 108.0349 1.00269852 12 KOMPSAT5 [KGS] 1 39227C 13042A 22220.00000000 .00000607 00000+0 43456-4 0 2206 2 39227 97.6328 45.0293 0001761 107.1277 331.8836 15.04510685 11 SWARMB [ESA] 1 39451C 13067A 22220.00000000 .00001884 00000+0 86166-4 0 2205 2 39451 87.7480 45.8806 0003176 100.4665 239.2616 15.20626401 15 SWARMA [ESA] 1 39452C 13067B 22220.00000000 .00003480 00000+0 11025-3 0 2201 2 39452 87.3612 206.1204 0002899 114.9045 338.6043 15.32796774 18 SWARMC [ESA] 1 39453C 13067C 22220.00000000 .00003490 00000+0 11058-3 0 2209 2 39453 87.3463 205.4876 0002891 114.9296 339.1000 15.32796858 12 GLONASS132 [COD] 1 39620C 14012A 22219.99979167 .00000000 00000+0 00000+0 0 2194 2 39620 65.8390 1.4152 0010691 326.6094 278.2088 2.13102944 15 GLONASS132 [NER] 1 39620C 14012A 22219.00000000 .00000000 00000+0 00000+0 0 2197 2 39620 65.8390 1.4490 0010701 326.9544 230.8600 2.13102960 17 IRNSS1B [ISR] 1 39635C 14017A 22219.99979167 .00000157 00000+0 00000+0 0 2198 2 39635 28.6393 264.2372 0021786 192.1015 275.0683 1.00273841 16 GLONASS133 [COD] 1 40001C 14032A 22219.99979167 .00000000 00000+0 00000+0 0 2191 2 40001 65.7783 1.2725 0007139 184.9887 278.3552 2.13102051 13 GLONASS133 [NER] 1 40001C 14032A 22219.00000000 .00000000 00000+0 00000+0 0 2194 2 40001 65.7784 1.3064 0007148 184.7039 231.6393 2.13102045 16 GALILEO201 [COD] 1 40128C 14050A 22219.99979167 .00000000 00000+0 00000+0 0 2191 2 40128 50.2491 330.2292 1624294 125.9327 281.3066 1.85518491 15 GALILEO201 [ESA] 1 40128C 14050A 22219.99979167 .00000000 00000+0 00000+0 0 2191 2 40128 50.2491 330.2292 1624293 125.9327 281.3066 1.85518488 10 GALILEO201 [GAL] 1 40128C 14050A 22220.01020833 .00000000 00000+0 00000+0 0 2205 2 40128 50.2491 330.2288 1624291 125.9331 288.2634 1.85518481 18 GALILEO202 [COD] 1 40129C 14050B 22219.99979167 .00000000 00000+0 00000+0 0 2192 2 40129 50.2734 329.2913 1621420 126.7420 106.1193 1.85519217 17 GALILEO202 [ESA] 1 40129C 14050B 22219.99979167 .00000000 00000+0 00000+0 0 2192 2 40129 50.2734 329.2913 1621420 126.7420 106.1193 1.85519219 19 GALILEO202 [GAL] 1 40129C 14050B 22220.01020833 .00000000 00000+0 00000+0 0 2206 2 40129 50.2734 329.2909 1621419 126.7424 113.0761 1.85519219 14 IRNSS1C [ISR] 1 40269C 14061A 22219.99979167 -.00000075 00000+0 00000+0 0 2192 2 40269 3.0688 126.5920 0022052 14.5513 258.2817 1.00272078 14 GLONASS134 [COD] 1 40315C 14075A 22219.99979167 .00000000 00000+0 00000+0 0 2196 2 40315 63.6845 239.3654 0019463 212.4733 59.1188 2.13101278 12 GLONASS134 [NER] 1 40315C 14075A 22219.00000000 .00000000 00000+0 00000+0 0 2199 2 40315 63.6848 239.4005 0019510 212.4872 12.0995 2.13101185 14 GALILEO203 [COD] 1 40544C 15017A 22219.99979167 .00000000 00000+0 00000+0 0 2197 2 40544 56.8113 19.9623 0001978 205.4800 8.1889 1.70475702 15 GALILEO203 [ESA] 1 40544C 15017A 22219.99979167 .00000000 00000+0 00000+0 0 2197 2 40544 56.8113 19.9623 0001978 205.4837 8.1852 1.70475703 16 GALILEO203 [GAL] 1 40544C 15017A 22220.01020833 .00000000 00000+0 00000+0 0 2201 2 40544 56.8113 19.9620 0001978 205.4911 14.5708 1.70475703 17 GALILEO204 [ESA] 1 40545C 15017B 22219.99979167 .00000000 00000+0 00000+0 0 2198 2 40545 56.8173 19.9749 0002603 183.6183 234.8979 1.70475301 11 GALILEO204 [GAL] 1 40545C 15017B 22220.01020833 .00000000 00000+0 00000+0 0 2202 2 40545 56.8173 19.9746 0002603 183.5903 241.3188 1.70475303 14 IRNSS1D [ISR] 1 40547C 15018A 22219.99979167 -.00000227 00000+0 00000+0 0 2193 2 40547 28.8688 264.2719 0021597 193.1742 330.7521 1.00269668 14 GALILEO205 [COD] 1 40889C 15045A 22219.99979167 .00000000 00000+0 00000+0 0 2190 2 40889 55.5912 260.5396 0003470 349.3940 212.0386 1.70473331 17 GALILEO205 [ESA] 1 40889C 15045A 22219.99979167 .00000000 00000+0 00000+0 0 2190 2 40889 55.5912 260.5396 0003470 349.3957 212.0369 1.70473331 16 GALILEO205 [GAL] 1 40889C 15045A 22220.01020833 .00000000 00000+0 00000+0 0 2204 2 40889 55.5912 260.5393 0003471 349.3900 218.4355 1.70473331 17 GALILEO206 [COD] 1 40890C 15045B 22219.99979167 .00000000 00000+0 00000+0 0 2192 2 40890 55.5901 260.5354 0002551 316.4713 109.4561 1.70473368 17 GALILEO206 [ESA] 1 40890C 15045B 22219.99979167 .00000000 00000+0 00000+0 0 2192 2 40890 55.5901 260.5354 0002551 316.4669 109.4604 1.70473369 16 GALILEO206 [GAL] 1 40890C 15045B 22220.01020833 .00000000 00000+0 00000+0 0 2206 2 40890 55.5901 260.5351 0002550 316.4649 115.8554 1.70473370 17 GALILEO209 [COD] 1 41174C 15079A 22219.99979167 .00000000 00000+0 00000+0 0 2195 2 41174 55.1674 139.9863 0004070 316.0147 2.9522 1.70473714 14 GALILEO209 [ESA] 1 41174C 15079A 22219.99979167 .00000000 00000+0 00000+0 0 2195 2 41174 55.1674 139.9863 0004070 316.0160 2.9509 1.70473715 15 GALILEO209 [GAL] 1 41174C 15079A 22220.01020833 .00000000 00000+0 00000+0 0 2209 2 41174 55.1674 139.9860 0004070 316.0142 9.3457 1.70473715 15 GALILEO208 [COD] 1 41175C 15079B 22219.99979167 .00000000 00000+0 00000+0 0 2196 2 41175 55.1657 139.9848 0003362 317.3069 226.9713 1.70473664 13 GALILEO208 [ESA] 1 41175C 15079B 22219.99979167 .00000000 00000+0 00000+0 0 2196 2 41175 55.1657 139.9848 0003362 317.3124 226.9658 1.70473663 12 GALILEO208 [GAL] 1 41175C 15079B 22220.01020833 .00000000 00000+0 00000+0 0 2200 2 41175 55.1657 139.9846 0003361 317.3252 233.3460 1.70473662 13 JASON3 [CNE] 1 41240C 16002A 22220.00000000 -.00000033 00000+0 -14395-3 0 2207 2 41240 66.0403 182.0069 0008285 268.3956 62.5245 12.80930501 14 JASON3 [HTS] 1 41240C 16002A 22219.98611111 -.00000076 00000+0 -33115-3 0 2199 2 41240 66.0404 182.0355 0008271 268.6326 358.2469 12.80930712 19 IRNSS1E [ISR] 1 41241C 16003A 22219.99979167 -.00000224 00000+0 00000+0 0 2197 2 41241 30.0899 83.8129 0019365 178.0413 166.4538 1.00270516 18 GLONASS135 [COD] 1 41330C 16008A 22219.99979167 .00000000 00000+0 00000+0 0 2192 2 41330 65.5782 0.9516 0010448 200.0764 87.1897 2.13102460 13 GLONASS135 [NER] 1 41330C 16008A 22219.00000000 .00000000 00000+0 00000+0 0 2195 2 41330 65.5782 0.9858 0010393 199.8353 40.4278 2.13102504 14 IRNSS1F [ISR] 1 41384C 16015A 22219.99979167 .00000245 00000+0 00000+0 0 2190 2 41384 2.2480 152.6973 0017366 187.8330 8.2553 1.00274620 10 COMPASSI6B [SHA] 1 41434C 16021A 22216.00000000 -.00000096 00000+0 00000+0 0 2165 2 41434 58.1692 52.3417 0044493 214.7451 141.6498 1.00273119 17 GALILEO211 [COD] 1 41549C 16030A 22219.99979167 .00000000 00000+0 00000+0 0 2199 2 41549 55.7360 260.4739 0004258 301.5547 169.5736 1.70474873 15 GALILEO211 [ESA] 1 41549C 16030A 22219.99979167 .00000000 00000+0 00000+0 0 2199 2 41549 55.7360 260.4739 0004258 301.5531 169.5752 1.70474873 16 GALILEO211 [GAL] 1 41549C 16030A 22220.01020833 .00000000 00000+0 00000+0 0 2203 2 41549 55.7360 260.4736 0004258 301.5539 175.9674 1.70474873 15 GALILEO210 [COD] 1 41550C 16030B 22219.99979167 .00000000 00000+0 00000+0 0 2191 2 41550 55.7355 260.4752 0004471 273.2723 18.2685 1.70474919 18 GALILEO210 [ESA] 1 41550C 16030B 22219.99979167 .00000000 00000+0 00000+0 0 2191 2 41550 55.7355 260.4752 0004471 273.2751 18.2658 1.70474920 11 GALILEO210 [GAL] 1 41550C 16030B 22220.01020833 .00000000 00000+0 00000+0 0 2205 2 41550 55.7355 260.4750 0004471 273.2802 24.6536 1.70474920 12 GEOIK2 [SPN] 1 41579C 16034A 22218.00000000 -.00000028 00000+0 -24462-4 0 2182 2 41579 99.2218 230.5065 0001541 98.4025 45.9705 13.85896940 13 GALILEO207 [COD] 1 41859C 16069A 22219.99979167 .00000000 00000+0 00000+0 0 2195 2 41859 54.8280 140.1548 0004124 301.1078 197.7686 1.70472360 15 GALILEO207 [ESA] 1 41859C 16069A 22219.99979167 .00000000 00000+0 00000+0 0 2195 2 41859 54.8280 140.1548 0004124 301.1150 197.7613 1.70472358 13 GALILEO207 [GAL] 1 41859C 16069A 22220.01020833 .00000000 00000+0 00000+0 0 2209 2 41859 54.8280 140.1545 0004123 301.1253 204.1440 1.70472357 13 GALILEO212 [COD] 1 41860C 16069B 22219.99979167 .00000000 00000+0 00000+0 0 2197 2 41860 54.8255 140.1523 0003004 329.5645 259.3028 1.70472323 16 GALILEO212 [ESA] 1 41860C 16069B 22219.99979167 .00000000 00000+0 00000+0 0 2197 2 41860 54.8255 140.1523 0003004 329.5677 259.2997 1.70472322 14 GALILEO212 [GAL] 1 41860C 16069B 22220.01020833 .00000000 00000+0 00000+0 0 2201 2 41860 54.8255 140.1520 0003003 329.5741 265.6861 1.70472322 13 GALILEO213 [COD] 1 41861C 16069C 22219.99979167 .00000000 00000+0 00000+0 0 2198 2 41861 54.8279 140.1576 0003776 277.5317 87.0802 1.70472537 18 GALILEO213 [ESA] 1 41861C 16069C 22219.99979167 .00000000 00000+0 00000+0 0 2198 2 41861 54.8279 140.1576 0003776 277.5322 87.0798 1.70472539 10 GALILEO213 [GAL] 1 41861C 16069C 22220.01020833 .00000000 00000+0 00000+0 0 2202 2 41861 54.8279 140.1573 0003776 277.5307 93.4742 1.70472541 13 GALILEO214 [COD] 1 41862C 16069D 22219.99979167 .00000000 00000+0 00000+0 0 2199 2 41862 54.8263 140.1521 0002880 283.3573 350.9776 1.70472396 11 GALILEO214 [ESA] 1 41862C 16069D 22219.99979167 .00000000 00000+0 00000+0 0 2199 2 41862 54.8263 140.1521 0002880 283.3577 350.9773 1.70472396 12 GALILEO214 [GAL] 1 41862C 16069D 22220.01020833 .00000000 00000+0 00000+0 0 2203 2 41862 54.8263 140.1518 0002879 283.3545 357.3733 1.70472397 19 QZS2 [QSS] 1 42738C 17028A 22219.00000000 -.00000130 00000+0 00000+0 0 2196 2 42738 41.6890 263.4565 0755801 269.7418 283.5159 1.00272894 15 TECHNOSAT [DLR] 1 42829C 17042E 22220.00000000 .00000762 00000+0 75296-4 0 2201 2 42829 97.4159 71.1210 0013896 188.0858 196.6390 14.91963058 10 QZS3 [QSS] 1 42917C 17048A 22218.00000000 -.00000258 00000+0 00000+0 0 2186 2 42917 0.0628 143.9599 0002060 8.5233 289.0294 1.00266901 10 GLONASS137 [COD] 1 42939C 17055A 22219.99979167 .00000000 00000+0 00000+0 0 2191 2 42939 64.1442 240.0662 0010124 244.6891 162.2943 2.13101902 19 GLONASS137 [NER] 1 42939C 17055A 22219.00000000 .00000000 00000+0 00000+0 0 2194 2 42939 64.1445 240.1007 0010174 244.8087 115.1691 2.13101750 18 QZS4 [QSS] 1 42965C 17062A 22219.00000000 -.00000153 00000+0 00000+0 0 2191 2 42965 40.7590 1.4694 0746267 268.8238 182.0370 1.00293186 18 BEIDOU3M2 [SHA] 1 43002C 17069B 22216.00000000 .00000000 00000+0 00000+0 0 2165 2 43002 55.5775 110.1280 0007765 322.6630 165.4106 1.86231025 17 GALILEO215 [COD] 1 43055C 17079A 22219.99979167 .00000000 00000+0 00000+0 0 2197 2 43055 55.7117 260.3055 0003965 267.5503 65.9206 1.70474084 11 GALILEO215 [ESA] 1 43055C 17079A 22219.99979167 .00000000 00000+0 00000+0 0 2197 2 43055 55.7117 260.3055 0003965 267.5504 65.9204 1.70474086 12 GALILEO215 [GAL] 1 43055C 17079A 22220.01020833 .00000000 00000+0 00000+0 0 2201 2 43055 55.7117 260.3052 0003964 267.5525 72.3113 1.70474087 13 GALILEO216 [COD] 1 43056C 17079B 22219.99979167 .00000000 00000+0 00000+0 0 2198 2 43056 55.7120 260.3053 0005621 272.1769 241.9533 1.70474197 15 GALILEO216 [ESA] 1 43056C 17079B 22219.99979167 .00000000 00000+0 00000+0 0 2198 2 43056 55.7120 260.3053 0005621 272.1773 241.9530 1.70474197 17 GALILEO216 [GAL] 1 43056C 17079B 22220.01020833 .00000000 00000+0 00000+0 0 2202 2 43056 55.7120 260.3050 0005622 272.1786 248.3445 1.70474197 15 GALILEO217 [COD] 1 43057C 17079C 22219.99979167 .00000000 00000+0 00000+0 0 2199 2 43057 55.7101 260.3049 0005007 281.9117 97.0534 1.70474161 15 GALILEO217 [ESA] 1 43057C 17079C 22219.99979167 .00000000 00000+0 00000+0 0 2199 2 43057 55.7101 260.3049 0005006 281.9093 97.0558 1.70474163 15 GALILEO217 [GAL] 1 43057C 17079C 22220.01020833 .00000000 00000+0 00000+0 0 2203 2 43057 55.7101 260.3046 0005006 281.9080 103.4501 1.70474164 19 GALILEO218 [COD] 1 43058C 17079D 22219.99979167 .00000000 00000+0 00000+0 0 2190 2 43058 55.7103 260.3024 0006098 269.4801 334.4289 1.70474139 13 GALILEO218 [ESA] 1 43058C 17079D 22219.99979167 .00000000 00000+0 00000+0 0 2190 2 43058 55.7103 260.3024 0006098 269.4804 334.4285 1.70474139 12 GALILEO218 [GAL] 1 43058C 17079D 22220.01020833 .00000000 00000+0 00000+0 0 2204 2 43058 55.7103 260.3021 0006098 269.4845 340.8174 1.70474139 12 PAZ [HDS] 1 43215C 18020A 22220.00000000 .00001578 00000+0 75272-4 0 2208 2 43215 97.4460 226.6058 0001715 99.0065 330.8902 15.19148894 15 BEIDOU3M9 [SHA] 1 43245C 18029A 22216.00000000 .00000000 00000+0 00000+0 0 2161 2 43245 55.2123 348.8118 0001031 138.4864 66.2445 1.86232348 15 BEIDOU3M10 [SHA] 1 43246C 18029B 22215.00000000 .00000000 00000+0 00000+0 0 2150 2 43246 55.2097 348.8758 0003155 12.7354 288.1121 1.86232633 16 IRNSS1I [ISR] 1 43286C 18035A 22219.99979167 .00000156 00000+0 00000+0 0 2198 2 43286 29.1841 96.5143 0018670 178.0619 96.8850 1.00271962 17 GRACEFO1 [GFZ] 1 43476C 18047A 22219.99979167 .00001351 00000+0 54769-4 0 2196 2 43476 88.9865 31.4881 0016754 147.2432 338.3325 15.24597966 13 GRACEFO2 [GFZ] 1 43477C 18047B 22219.99979167 .00001344 00000+0 54499-4 0 2199 2 43477 88.9865 31.4910 0016764 147.3337 336.7821 15.24598214 13 GLONASS138 [COD] 1 43508C 18053A 22219.99979167 .00000000 00000+0 00000+0 0 2193 2 43508 64.9777 121.1115 0007722 228.7675 210.3103 2.13102238 12 GLONASS138 [NER] 1 43508C 18053A 22219.00000000 .00000000 00000+0 00000+0 0 2196 2 43508 64.9774 121.1450 0007738 229.2207 162.8501 2.13102332 13 GALILEO221 [COD] 1 43564C 18060A 22219.99979167 .00000000 00000+0 00000+0 0 2193 2 43564 57.1934 19.7910 0001517 251.6472 54.4067 1.70475567 10 GALILEO221 [ESA] 1 43564C 18060A 22219.99979167 .00000000 00000+0 00000+0 0 2193 2 43564 57.1934 19.7910 0001517 251.6413 54.4126 1.70475567 11 GALILEO221 [GAL] 1 43564C 18060A 22220.01020833 .00000000 00000+0 00000+0 0 2207 2 43564 57.1934 19.7908 0001517 251.6369 60.8099 1.70475566 17 GALILEO222 [COD] 1 43565C 18060B 22219.99979167 .00000000 00000+0 00000+0 0 2194 2 43565 57.1955 19.7915 0000951 272.4543 258.6659 1.70475567 15 GALILEO222 [ESA] 1 43565C 18060B 22219.99979167 .00000000 00000+0 00000+0 0 2194 2 43565 57.1955 19.7915 0000952 272.4500 258.6703 1.70475568 10 GALILEO222 [GAL] 1 43565C 18060B 22220.01020833 .00000000 00000+0 00000+0 0 2208 2 43565 57.1955 19.7912 0000952 272.4504 265.0627 1.70475569 19 GALILEO219 [COD] 1 43566C 18060C 22219.99979167 .00000000 00000+0 00000+0 0 2195 2 43566 57.1960 19.7935 0000597 269.0725 126.6984 1.70475571 14 GALILEO219 [ESA] 1 43566C 18060C 22219.99979167 .00000000 00000+0 00000+0 0 2195 2 43566 57.1961 19.7935 0000596 269.0613 126.7096 1.70475571 15 GALILEO219 [GAL] 1 43566C 18060C 22220.01020833 .00000000 00000+0 00000+0 0 2209 2 43566 57.1961 19.7932 0000596 269.0562 133.1076 1.70475571 15 GALILEO220 [COD] 1 43567C 18060D 22219.99979167 .00000000 00000+0 00000+0 0 2196 2 43567 57.1958 19.7939 0000906 250.2899 10.3700 1.70475452 17 GALILEO220 [ESA] 1 43567C 18060D 22219.99979167 .00000000 00000+0 00000+0 0 2196 2 43567 57.1958 19.7939 0000906 250.2770 10.3828 1.70475452 16 GALILEO220 [GAL] 1 43567C 18060D 22220.01020833 .00000000 00000+0 00000+0 0 2200 2 43567 57.1958 19.7936 0000906 250.2678 16.7850 1.70475451 14 HY2B [SHA] 1 43655C 18081A 22219.00000000 .00000097 00000+0 94796-4 0 2196 2 43655 99.3426 227.0428 0001841 67.4587 254.5175 13.79302552 11 GLONASS139 [COD] 1 43687C 18086A 22219.99979167 .00000000 00000+0 00000+0 0 2197 2 43687 64.3592 240.3964 0011963 263.5129 99.0035 2.13102022 15 GLONASS139 [NER] 1 43687C 18086A 22219.00000000 .00000000 00000+0 00000+0 0 2190 2 43687 64.3594 240.4306 0012020 263.4085 52.1023 2.13101871 11 GLONASS140 [COD] 1 44299C 19030A 22219.99979167 .00000000 00000+0 00000+0 0 2197 2 44299 64.4311 240.2860 0014229 281.4029 215.6545 2.13101854 19 GLONASS140 [NER] 1 44299C 19030A 22219.00000000 .00000000 00000+0 00000+0 0 2190 2 44299 64.4314 240.3201 0014263 281.4458 168.6064 2.13101752 16 GLONASS141 [COD] 1 44850C 19088A 22219.99979167 .00000000 00000+0 00000+0 0 2193 2 44850 64.9630 120.9626 0011994 258.7305 223.7728 2.13101969 15 GLONASS141 [NER] 1 44850C 19088A 22219.00000000 .00000000 00000+0 00000+0 0 2196 2 44850 64.9626 120.9961 0012046 258.8386 176.6586 2.13102084 18 GLONASS142 [COD] 1 45358C 20018A 22219.99979167 .00000000 00000+0 00000+0 0 2192 2 45358 64.9163 1.5173 0008053 234.0602 97.8590 2.13102398 14 HY2C [SHA] 1 46469C 20066A 22219.00000000 -.00000029 00000+0 -26202-4 0 2192 2 46469 65.9978 126.3356 0010815 243.0770 196.5788 13.83373902 13 GLONASS143 [COD] 1 46805C 20075A 22219.99979167 .00000000 00000+0 00000+0 0 2193 2 46805 64.6556 239.7256 0008778 246.1982 298.7329 2.13102918 11 SENTINEL6A [EUM] 1 46984C 20086A 22220.00000000 -.00000057 00000+0 -24520-3 0 2201 2 46984 66.0404 181.9531 0007944 271.3943 222.2213 12.80930412 19 ELSADCHS [ATS] 1 47944C 21022N 22219.99652778 .00001512 00000+0 98148-4 0 2191 2 47944 97.5221 118.8096 0017397 326.3414 319.8612 15.08006437 14 HY2D [SHA] 1 48621C 21043A 22219.00000000 .00000059 00000+0 53678-4 0 2198 2 48621 65.9961 215.5737 0011464 275.6185 255.4555 13.83375253 11 QZS1R [QSS] 1 49336C 21096A 22219.00000000 -.00000196 00000+0 00000+0 0 2199 2 49336 34.5610 101.0294 0759035 272.1267 72.5952 1.00239890 12 GALILEO223 [ESA] 1 49809C 21116A 22219.99979167 .00000000 00000+0 00000+0 0 2197 2 49809 57.1883 19.6920 0003163 149.0784 201.6129 1.70475634 16 GALILEO223 [GAL] 1 49809C 21116A 22220.01020833 .00000000 00000+0 00000+0 0 2201 2 49809 57.1883 19.6917 0003163 149.0822 208.0020 1.70475634 16 GALILEO224 [ESA] 1 49810C 21116B 22219.99979167 .00000000 00000+0 00000+0 0 2199 2 49810 57.1891 19.6900 0002914 136.4806 326.6894 1.70475619 13 GALILEO224 [GAL] 1 49810C 21116B 22220.01020833 .00000000 00000+0 00000+0 0 2203 2 49810 57.1891 19.6897 0002914 136.4901 333.0728 1.70475620 14 ELSADTGT [ATS] 1 51288C 21022AQ 22219.99652778 .00001746 00000+0 11233-3 0 2195 2 51288 97.5215 118.8550 0016690 327.0438 77.8626 15.08359745 16 LARES2 [SGF] 1 53105C 22080A 22219.00000000 -.00000001 00000+0 00000+0 0 2197 2 53105 70.1558 68.9714 0005544 279.5625 206.0281 6.38965073 18